Вернуться в каталог

SINP-MSU-80 (Scorpion)

АктивенВоенныеSSO
NORAD 67293·PAYLOAD·🇷🇺 Russia

Запущен Dec 28, 2025 с Vostochny Cosmodrome

Loading…

Ближайшие Пролёты (ближайшие 24 часа)

TLE

СвежийSource: Space-Track

Эпоха: Sep 14, 2026, 10:20 UTC

1 67293U 25313AX  26257.43108816  .00002897  00000-0  12459-3 0  9994
2 67293  97.3867 330.8002 0011819  41.6236 318.5899 15.23377249 39544

Отслеживайте SINP-MSU-80 (Scorpion) в реальном времени с AllMySat

Download on the App Store